Content
SEND FEEDBACK

Daily
Averages
Monthly
Summary
United States of America

ST. LOUIS, MISSOURI


Home > North America > United States > Missouri
Elevation: 535 feet     Latitude: 38 45N     Longitude: 090 22W

WEATHER
 
SELECT A DAY
Number of Records: 196,318;   Date Range: 1/1/95 - 7/23/14
 
SHARE

PRINT THIS DATA

[ ← Previous Day ]
WEATHER ALMANAC - MAY 15, 2014
[ Next Day → ]
[ °C ]   °F
Weather ElementAverageHighLow
Temperature51.8 °F62.6 °F (2:14 pm)43 °F (11:54 pm)
Dewpoint42.3 °F46.9 °F (4:54 pm)35.1 °F (7:54 pm)
Humidity71.8 %93 % (3:54 am)48 % (2:14 pm)
Barometer30.06 in30.09 in (9:54 pm)30.00 in (2:14 pm)
Wind Speed6.7 mph15 mph (3:54 pm)
Wind Gust20.7 mph (3:40 pm)
Weather ElementAverage
Visibility9.5 mi
Wind DirectionWSW (258.3 °)

Weather ElementTotal
Precipitation0.09 in
Heating Degree Days12.2 (Base 65)
Growing Degree Days2.8 (Base 50)
Averaged from 24 records on May 15, 2014
WEATHER CONDITIONS BREAKOUT
WIND DIRECTION BREAKOUT
WEATHER BY HOUR - MAY 15, 2014
[ °C ]   °F
Local TimeTemperatureDewpointHumidityBarometerVisibilityWind DirectionWind SpeedGust SpeedPrecipitationEventsConditions
1:54 AM46.9 °F44.1 °F90 %30.07 in9.0 miWest (270°)4.6 mph0.01 inOvercast
2:54 AM46.9 °F44.1 °F90 %30.05 in10.0 miWest (280°)5.8 mph0.00 inOvercast
3:54 AM46.0 °F44.1 °F93 %30.04 in10.0 miWSW (250°)3.5 mphOvercast
4:54 AM46.0 °F43.0 °F89 %30.04 in10.0 miWSW (250°)3.5 mphOvercast
5:54 AM45.0 °F42.1 °F90 %30.05 in10.0 miWest (260°)5.8 mphMostly Cloudy
6:54 AM46.0 °F43.0 °F89 %30.06 in10.0 miWSW (250°)8.1 mphMostly Cloudy
7:54 AM48.9 °F44.1 °F83 %30.07 in10.0 miWSW (250°)8.1 mphScattered Clouds
8:54 AM53.1 °F45.0 °F74 %30.07 in10.0 miWest (260°)8.1 mphScattered Clouds
9:54 AM57.0 °F45.0 °F64 %30.07 in10.0 miVariable6.9 mphScattered Clouds
10:54 AM57.0 °F43.0 °F59 %30.07 in10.0 miNW (310°)9.2 mphMostly Cloudy
11:54 AM57.9 °F43.0 °F58 %30.06 in10.0 miCalmScattered Clouds
12:54 PM60.1 °F44.1 °F55 %30.05 in10.0 miWNW (290°)8.1 mph0.00 inRainLight Rain
2:14 PM62.6 °F42.8 °F48 %30.00 in10.0 miWNW (290°)3.5 mphThunderstormMostly Cloudy
2:54 PM54.0 °F44.1 °F69 %30.02 in8.0 miNNW (340°)9.2 mph0.01 inRain-ThunderstormLight Thunderstorms and Rain
3:40 PM53.6 °F46.4 °F77 %30.04 in6.0 miWNW (300°)12.7 mph20.7 mph0.02 inRainLight Rain
3:54 PM50.0 °F46.0 °F86 %30.05 in6.0 miNW (310°)15.0 mph0.03 inRainLight Rain
4:54 PM55.0 °F46.9 °F74 %30.04 in10.0 miNW (310°)5.8 mph0.02 inMostly Cloudy
5:54 PM57.0 °F46.0 °F67 %30.02 in10.0 miNW (320°)6.9 mphMostly Cloudy
6:54 PM55.9 °F37.0 °F49 %30.04 in10.0 miNW (320°)6.9 mphMostly Cloudy
7:54 PM54.0 °F35.1 °F49 %30.07 in10.0 miWNW (300°)8.1 mphMostly Cloudy
8:54 PM53.1 °F35.1 °F50 %30.08 in10.0 miWest (280°)5.8 mphOvercast
9:54 PM48.0 °F36.0 °F63 %30.09 in10.0 miWest (270°)3.5 mphPartly Cloudy
10:54 PM45.0 °F37.9 °F76 %30.09 in10.0 miWSW (240°)5.8 mphMostly Cloudy
11:54 PM43.0 °F37.0 °F80 %30.08 in10.0 miWSW (250°)5.8 mphPartly Cloudy
Hourly data recorded from KSUS, located miles away from St. Louis, Missouri







STORIES FROM OUR PARTNERS